Wind_Speed
15 14 13 16 19 20 19 20 20 18 16 15 13 12 12 13 13 13 12 11 11 10 10 10 10 10 11 11 11 12 13 13 13 13 14 14 14 15 16 17 18 18 19 19 19 20 22 21 21 21 21 21 22 22 21 20 20 19 18 17 16 15 16 15 15 15 15 14 14 14 14 14 14 14 14 14 14 13 13 13 13 14 14 14 13
16 14 9 7 10 16 19 21 21 19 17 16 13 12 12 13 14 14 13 12 11 10 10 10 10 10 10 11 11 11 12 14 13 13 14 14 14 15 17 18 18 19 20 20 20 20 21 22 23 22 21 21 22 23 22 21 21 20 19 18 17 16 16 16 16 16 15 15 15 15 15 15 15 15 15 15 15 15 15 14 14 15 15 14 14
16 13 7 4 3 6 9 14 19 18 17 17 14 11 12 13 14 13 12 11 10 10 10 9 9 10 11 11 11 11 13 15 14 13 14 15 15 16 17 18 18 18 20 20 20 20 19 21 23 23 23 22 21 22 22 21 21 21 20 19 18 17 17 17 17 17 17 16 16 16 16 16 16 16 16 16 16 16 16 15 15 15 15 15 14
16 13 10 7 4 2 0 5 13 15 15 16 14 12 11 13 14 13 12 10 9 9 10 10 10 11 11 10 10 12 14 14 14 14 15 16 15 16 17 17 18 18 20 20 21 20 20 20 20 22 23 23 21 21 22 21 21 20 20 19 18 18 18 18 18 17 17 17 17 17 17 17 17 17 17 17 17 17 17 17 16 16 16 15 15
20 17 15 12 8 4 0 3 6 10 13 14 15 13 12 12 13 13 13 12 10 9 9 10 10 10 11 10 11 13 13 13 14 16 16 16 16 16 16 17 18 19 20 20 21 21 21 20 20 20 21 21 22 22 21 21 21 20 20 19 19 19 18 19 18 17 18 19 19 18 18 18 18 18 18 18 18 18 18 18 18 18 17 17 17
21 20 18 15 11 7 5 3 5 6 10 13 14 14 13 13 13 14 14 13 12 10 9 9 9 10 11 11 11 12 13 14 16 17 18 17 16 16 17 18 18 20 21 21 21 21 22 22 21 21 21 21 22 22 21 21 21 20 20 20 19 19 19 19 19 19 19 20 20 20 20 19 19 19 20 19 19 20 20 19 19 19 19 19 18
18 19 18 16 14 12 10 8 5 5 8 11 13 13 14 14 13 13 14 14 13 11 10 10 10 10 9 10 11 12 13 14 16 17 18 18 17 17 17 19 19 21 22 22 22 22 22 23 23 23 23 23 23 22 22 23 22 22 21 21 20 20 20 20 20 20 21 21 21 21 21 21 21 21 21 21 21 21 21 21 21 21 20 20 20
15 17 18 18 17 15 13 12 10 6 6 9 10 11 13 14 14 14 14 14 13 11 10 11 11 10 9 9 10 12 12 13 14 16 17 19 18 18 19 20 21 21 23 24 23 23 23 24 24 25 25 25 25 24 25 25 24 24 23 22 21 21 21 21 21 21 22 23 23 23 23 23 23 22 22 22 22 22 22 22 22 22 22 22 22
17 17 18 18 18 17 15 14 14 12 8 9 9 9 11 13 15 15 15 14 13 12 10 10 11 11 10 10 11 13 14 13 14 15 16 18 19 20 21 21 22 22 23 24 24 25 25 24 25 26 27 27 27 26 27 27 27 26 26 25 23 23 22 22 22 23 23 23 24 24 24 24 24 24 23 24 24 24 23 23 23 23 23 23 23
22 20 19 19 19 18 17 16 16 14 12 10 9 9 9 11 13 14 15 16 14 12 11 10 11 11 11 10 10 12 15 15 16 16 16 18 20 21 22 22 22 22 23 24 24 24 25 26 26 26 27 28 28 28 28 28 28 28 27 27 25 25 24 24 24 24 24 24 24 24 24 24 24 24 24 24 24 24 24 24 25 24 24 24 24
25 22 21 20 19 18 17 17 16 15 14 12 10 9 9 9 9 11 14 16 15 12 10 10 10 11 11 11 10 12 15 16 17 18 19 21 22 22 22 22 22 22 23 24 24 24 24 25 27 27 28 28 29 29 30 29 29 29 29 28 28 27 27 27 26 26 26 26 26 26 25 25 25 25 25 25 25 25 25 25 25 25 25 25 25
22 20 19 19 18 17 16 16 15 14 14 14 12 11 10 9 9 10 13 14 13 11 10 10 9 9 10 12 12 12 14 15 17 19 20 22 24 24 23 22 22 23 24 24 24 25 24 24 25 27 29 30 29 29 30 31 31 31 31 30 29 29 28 28 28 28 28 28 28 27 27 27 27 26 26 26 26 26 26 27 27 26 26 26 26
19 18 18 17 16 16 16 15 15 14 14 14 14 12 11 10 9 11 13 13 11 10 10 10 9 6 6 8 11 12 14 15 17 20 21 22 25 26 25 23 23 23 23 24 25 26 26 25 25 25 27 30 31 31 30 31 32 32 33 32 31 30 30 30 30 29 30 30 29 29 29 28 28 28 27 27 26 26 26 26 27 27 27 27 27
18 18 18 18 18 18 18 17 16 16 15 15 13 13 12 11 11 13 13 13 11 10 10 9 7 4 1 3 5 9 13 15 17 19 21 22 24 26 26 25 24 23 23 24 25 26 27 28 27 25 26 27 30 32 32 32 32 33 33 33 33 33 32 32 31 31 31 31 31 30 30 30 30 29 29 28 28 28 27 27 27 27 26 26 27
18 18 19 19 20 20 19 17 17 17 17 17 16 15 13 11 12 14 14 12 11 10 10 10 9 6 4 1 2 3 5 10 17 21 22 23 24 27 27 27 26 25 24 24 26 26 27 28 29 28 27 27 28 30 31 32 33 34 34 34 34 34 34 33 33 32 32 32 31 31 31 31 31 30 30 30 29 29 29 28 28 28 27 26 26
18 18 19 19 19 19 19 18 17 16 17 17 17 17 15 13 13 14 14 12 10 11 11 11 11 8 4 2 1 1 2 5 12 20 23 23 24 27 28 28 28 26 25 26 27 27 28 29 30 30 30 29 29 29 30 30 31 33 34 35 35 35 34 34 34 34 33 33 32 32 32 32 32 32 31 31 30 30 30 29 29 29 28 27 26
16 16 17 17 17 18 18 18 18 16 15 16 16 16 15 15 14 14 13 12 11 12 12 12 13 13 9 5 3 1 3 4 6 12 20 25 26 26 27 28 27 27 28 28 28 28 28 28 29 30 31 31 31 31 31 30 29 30 33 35 36 35 35 35 35 35 34 34 34 33 33 33 33 33 33 32 31 31 30 30 29 29 28 27 26
13 14 15 15 16 16 17 17 17 17 16 15 15 15 16 17 16 15 14 13 13 13 14 14 14 17 16 14 10 5 2 3 2 3 11 20 24 26 27 27 27 27 28 28 29 29 28 28 28 29 30 31 31 32 31 31 30 30 31 32 33 34 35 36 36 36 35 35 35 35 34 34 34 34 34 33 32 32 31 31 30 30 28 27 26
12 14 15 16 16 16 16 16 16 17 16 16 16 17 17 18 17 17 15 15 15 15 15 14 15 19 21 22 25 21 12 6 4 1 3 9 18 24 26 26 25 25 26 28 28 28 29 28 28 28 29 29 30 31 32 31 31 30 30 30 30 30 31 33 34 35 36 36 37 37 36 36 36 35 35 35 34 34 33 32 31 31 30 28 27
13 13 14 15 16 17 16 16 17 18 17 18 19 19 19 19 18 18 17 16 16 15 15 14 16 19 21 24 30 31 26 19 15 9 3 2 8 15 21 24 25 25 26 26 28 28 28 28 28 28 28 29 29 30 31 31 30 30 30 30 29 28 28 28 29 31 33 34 35 37 38 38 37 37 36 36 36 35 34 33 32 32 30 30 29
12 12 12 12 14 15 16 17 18 18 19 19 20 20 19 19 18 18 18 18 18 17 17 17 16 17 18 20 23 24 25 24 21 16 9 5 4 4 11 16 19 25 28 27 27 28 28 28 28 28 28 29 30 30 30 30 30 30 30 30 29 28 27 26 26 27 28 29 31 33 35 37 37 37 37 37 36 36 35 34 33 32 31 30 30
10 11 11 11 11 13 14 16 16 17 18 18 19 19 18 18 17 16 16 17 18 19 18 17 17 17 17 17 17 17 15 14 16 16 12 8 6 4 7 10 11 19 27 29 29 29 29 29 28 28 28 29 30 30 30 30 30 30 30 30 30 29 28 27 27 27 26 27 28 28 30 32 34 35 36 37 37 37 36 35 34 33 32 31 30
10 11 11 11 11 12 12 13 14 15 17 17 17 17 17 17 17 16 16 17 18 20 19 17 16 16 17 17 18 17 15 12 14 16 12 8 6 4 7 13 13 15 20 24 27 28 29 30 29 29 29 29 30 31 31 31 30 30 30 29 30 30 29 28 28 28 27 26 26 26 27 27 29 31 33 35 37 37 36 36 35 34 34 33 32
11 12 12 12 12 12 11 12 13 14 16 16 17 16 16 17 17 17 18 18 20 20 19 18 18 18 19 18 18 19 19 19 19 19 18 17 13 5 7 11 11 15 19 18 20 24 26 28 30 30 30 29 30 31 32 32 32 31 29 29 30 30 29 29 28 28 27 26 26 26 26 26 27 27 28 30 33 34 35 35 35 34 34 33 33
13 14 15 14 14 13 12 12 12 14 14 15 15 15 15 16 17 18 19 19 20 20 20 20 21 20 20 19 18 18 19 21 21 21 21 21 15 8 9 11 8 12 16 15 16 19 21 24 26 27 30 30 29 30 31 33 33 32 30 29 29 30 30 29 28 28 27 26 26 26 26 26 26 26 26 27 28 29 31 32 32 32 32 31 31
15 16 16 16 16 15 15 14 13 13 14 15 15 14 14 15 16 18 19 19 20 21 21 22 22 22 21 19 19 19 20 21 21 21 20 18 16 13 11 10 10 10 9 11 13 12 15 19 22 23 26 28 29 28 29 31 32 33 32 30 29 29 30 30 29 28 28 27 26 26 27 27 26 26 26 26 26 26 27 28 29 29 29 29 28
15 15 16 16 15 14 15 16 15 14 13 14 15 15 15 15 15 17 18 19 20 22 22 22 22 22 21 19 18 17 18 19 20 21 18 16 18 21 16 8 7 7 5 7 9 12 16 17 17 21 23 24 26 27 27 29 30 31 31 30 29 30 30 30 29 28 28 27 27 26 26 27 27 26 26 26 25 25 25 26 26 27 27 27 27
15 14 15 15 13 12 13 14 15 14 14 13 13 14 15 15 16 17 18 18 19 20 21 21 21 21 20 19 19 19 18 17 18 19 18 15 15 20 21 14 7 4 4 5 5 10 18 18 16 19 21 21 23 24 26 28 28 28 28 28 29 30 30 29 28 28 27 27 27 26 26 26 26 27 26 26 25 25 25 25 25 25 25 25 24
14 13 15 14 13 13 12 12 12 13 14 13 13 13 14 16 17 17 18 18 18 19 19 19 19 18 18 19 20 22 22 21 21 21 20 17 15 16 19 19 15 7 3 5 4 6 14 18 18 18 19 20 21 22 25 26 27 26 25 26 27 28 28 28 28 27 27 27 27 26 26 25 25 26 26 26 25 25 25 25 25 24 23 22 22
13 13 14 14 14 15 14 14 14 14 15 15 15 14 14 15 16 17 18 18 18 18 17 17 17 16 17 18 19 20 22 22 23 23 22 20 17 17 18 21 22 16 8 5 6 9 13 16 19 19 19 19 19 21 23 24 25 25 25 25 26 25 26 25 26 26 26 26 26 26 25 24 24 24 24 24 24 24 24 24 24 23 22 22 22
15 14 15 15 16 16 16 15 15 15 14 14 14 14 14 15 16 17 18 17 18 18 18 18 18 17 18 20 21 21 22 22 22 23 25 24 22 20 20 21 23 24 19 10 4 9 14 16 18 19 18 18 18 20 22 22 23 24 25 26 25 24 24 23 23 23 24 25 25 25 25 24 24 24 24 24 24 24 23 23 23 23 22 22 22
15 14 15 15 15 15 15 14 14 13 13 12 12 13 13 14 16 17 18 18 18 19 19 19 19 19 20 21 23 23 22 23 24 25 25 24 24 23 21 21 22 25 25 17 6 9 17 19 18 18 17 17 18 20 21 21 22 23 25 26 25 24 23 24 23 23 23 23 24 24 24 24 24 24 24 25 24 24 23 23 23 23 23 23 22
15 15 16 15 14 15 15 15 15 15 14 13 12 13 14 14 15 16 18 18 19 19 19 21 21 20 21 22 23 23 22 23 24 24 23 24 24 22 20 19 21 24 26 22 11 9 17 21 19 18 17 16 18 19 20 21 22 23 24 25 24 24 24 25 24 23 23 22 22 22 22 21 22 22 23 24 24 24 24 23 23 23 24 24 23
16 16 17 16 16 16 17 17 17 17 16 14 13 13 14 14 15 16 17 18 19 19 19 20 20 20 21 23 24 23 22 23 23 24 24 24 25 23 21 19 19 20 22 23 18 12 14 20 21 20 18 18 18 18 19 21 21 22 23 24 24 24 24 24 24 23 22 22 21 20 20 20 21 22 23 23 24 24 24 24 23 24 24 24 24
16 16 16 17 17 18 18 18 17 16 16 15 14 14 14 15 15 16 17 18 18 19 19 19 20 20 21 22 24 23 21 21 22 23 24 25 25 24 24 23 21 20 20 21 22 17 15 19 22 22 20 20 20 19 19 20 21 21 23 23 23 23 23 23 23 23 23 22 20 19 20 21 21 22 22 22 23 23 23 24 24 24 24 24 24
16 16 16 17 18 18 17 17 16 16 16 16 15 15 16 16 16 16 17 18 18 19 19 20 20 20 21 22 23 23 22 22 23 23 24 25 25 25 26 26 24 23 21 19 21 22 19 18 20 24 24 23 23 22 20 20 21 23 24 23 23 23 24 24 24 24 24 23 21 20 20 21 21 20 20 20 20 21 22 23 24 24 24 24 24
17 17 18 18 18 18 18 17 17 17 17 17 16 16 16 16 17 18 18 18 19 19 20 20 21 21 21 22 23 23 23 23 24 24 24 24 25 26 27 26 25 24 23 20 19 22 22 20 20 24 25 24 24 23 23 22 23 24 24 24 24 24 24 25 25 25 25 24 22 21 21 22 21 20 19 19 19 20 21 22 23 24 24 24 24
18 18 18 18 19 19 19 18 18 19 18 18 17 17 17 17 17 18 19 19 19 19 20 21 21 21 21 21 23 23 23 24 24 24 24 24 24 25 26 26 26 24 24 22 19 19 22 24 23 23 22 24 24 23 24 24 23 24 24 24 24 24 24 24 25 25 25 24 23 22 22 22 21 20 20 19 20 20 21 22 23 23 24 24 23
19 19 19 19 19 19 19 19 19 19 19 19 18 18 17 17 18 19 20 20 20 20 20 21 21 21 21 21 21 22 23 24 25 24 24 24 24 24 26 26 25 24 23 23 19 17 20 23 23 22 22 24 24 23 24 25 24 24 24 23 22 24 24 24 25 26 25 24 23 23 22 21 21 20 19 19 20 20 20 21 22 22 23 24 23
18 19 19 19 19 20 20 20 20 20 20 20 19 19 18 17 18 19 19 19 20 21 21 21 20 21 22 21 21 21 23 25 26 25 25 25 24 25 26 25 24 23 23 22 19 17 18 20 22 23 22 22 22 21 21 22 21 21 23 23 23 25 25 25 26 25 25 24 23 23 22 22 21 20 20 20 20 19 19 19 20 21 22 23 23
18 18 18 19 19 21 21 21 20 20 20 20 20 19 19 18 18 19 19 19 21 21 21 21 21 21 22 22 22 22 22 23 25 25 25 25 25 25 25 24 22 22 22 21 19 17 16 17 19 21 20 19 21 20 19 22 23 24 25 24 23 24 24 23 25 25 24 23 23 24 24 23 22 21 21 20 19 18 18 18 19 19 20 21 22
19 18 19 19 21 21 22 21 21 21 21 21 21 20 19 18 19 20 20 21 21 21 22 22 22 22 22 23 23 22 22 22 23 23 23 24 25 26 26 26 25 24 23 21 20 19 17 16 17 18 16 16 21 24 24 26 28 26 24 24 24 22 19 17 19 23 24 23 22 23 24 23 22 21 21 21 19 18 17 17 17 17 17 18 20
19 19 20 21 22 22 22 21 22 22 23 22 21 20 19 18 19 20 21 22 22 22 22 22 23 23 23 23 23 22 22 23 23 23 23 23 25 26 26 27 27 27 26 24 21 20 19 17 17 15 14 16 22 27 28 27 27 26 25 24 24 21 17 13 12 16 21 22 22 23 24 23 21 21 21 21 20 18 17 16 15 15 16 16 17
19 19 21 22 23 22 22 22 22 23 23 22 21 20 20 19 19 20 21 22 22 23 23 23 24 24 24 25 25 23 23 24 24 24 24 24 24 25 26 27 27 28 30 29 27 24 21 19 18 16 19 22 21 24 27 26 26 27 26 24 23 21 19 17 14 15 17 18 20 22 24 23 21 21 22 21 19 18 17 16 16 16 15 15 15
19 20 21 22 22 22 22 23 23 23 23 23 22 22 21 21 20 20 21 22 23 23 23 24 24 25 25 25 25 25 24 24 24 24 24 24 24 25 25 26 27 28 30 31 32 30 28 25 22 22 25 26 23 23 28 29 28 26 24 23 24 23 21 21 22 23 20 16 17 19 20 22 20 19 20 19 17 17 16 16 16 15 14 14 15
21 21 22 22 22 23 23 23 23 24 24 24 24 23 22 22 21 20 21 21 22 22 22 23 23 24 25 25 26 26 26 25 25 24 24 25 25 26 25 25 27 28 29 30 32 33 33 32 29 28 29 28 28 30 31 29 28 27 26 26 26 24 24 24 25 25 21 17 16 14 15 19 19 18 19 18 16 17 16 15 16 15 13 13 13
21 21 22 22 23 23 23 23 24 25 25 25 24 23 23 22 21 21 21 22 23 23 23 23 23 23 24 25 26 26 27 27 26 25 24 24 25 26 26 26 27 27 28 29 30 32 34 35 35 34 33 32 32 34 33 29 27 26 26 25 25 24 24 23 22 22 21 20 18 15 13 17 19 18 18 18 16 16 15 14 14 13 12 12 12
21 21 22 22 24 24 24 24 24 26 27 25 24 23 23 22 21 21 22 23 23 24 24 23 23 23 24 25 26 26 27 27 27 26 24 23 23 25 26 26 26 26 27 29 30 31 33 34 36 36 35 33 31 32 33 29 25 25 24 22 20 20 19 16 17 21 23 21 21 20 17 16 17 17 16 16 15 15 15 14 12 11 12 12 12
22 23 23 24 24 25 24 24 24 26 27 26 24 24 23 22 22 22 23 23 24 24 24 23 23 23 23 25 26 26 26 27 27 26 24 22 23 25 26 25 25 25 28 30 29 29 31 33 35 36 35 33 31 31 31 26 24 25 23 19 19 20 17 11 12 18 22 21 21 22 20 17 17 16 14 13 13 14 13 13 12 11 12 12 12
25 25 26 26 26 25 24 24 24 25 26 25 23 24 24 23 22 22 22 22 23 23 24 23 22 22 23 25 25 25 25 26 26 26 25 23 24 25 25 25 23 24 27 28 27 28 31 32 33 34 34 33 33 32 29 27 27 27 24 23 25 24 19 14 14 16 19 21 22 22 19 18 18 16 12 10 11 13 14 13 12 12 12 13 13
26 27 27 27 26 25 23 23 24 24 25 25 23 23 23 22 20 20 21 21 21 22 22 22 23 23 24 25 25 24 24 24 24 25 24 24 25 26 25 24 24 27 29 28 27 28 30 30 31 33 33 33 34 34 31 31 31 30 29 31 31 26 22 20 19 14 9 13 22 24 21 19 19 18 15 9 6 8 13 14 12 12 13 14 13
Wind_Direction
247 259 274 271 257 248 248 249 248 245 235 230 230 229 228 223 221 224 227 228 224 226 228 232 243 244 241 242 235 228 224 226 232 233 232 232 232 228 224 223 217 215 216 210 205 202 198 199 203 204 204 205 206 208 210 211 211 212 215 216 216 219 222 222 225 228 229 230 232 234 234 236 238 239 242 246 249 253 256 257 258 258 259 263 267
249 253 269 277 257 250 249 248 248 246 235 226 222 225 226 222 220 222 229 235 231 228 231 233 239 243 249 249 240 235 231 230 235 240 237 234 233 229 226 224 219 216 218 215 209 207 203 200 203 205 207 209 210 211 213 213 213 215 217 218 219 221 226 227 228 231 232 233 233 235 236 237 239 240 243 246 249 252 254 257 259 260 261 263 266
249 249 251 237 228 252 250 242 244 242 234 226 219 221 223 222 222 222 230 240 238 234 235 241 246 245 251 253 242 239 240 233 233 241 240 235 233 231 229 226 223 222 221 220 215 211 208 206 207 208 208 211 214 215 216 216 216 217 219 221 221 223 227 229 232 234 236 237 238 238 240 241 242 243 244 247 250 253 256 258 260 262 262 262 264
247 247 249 246 241 264 164 217 234 238 235 226 218 219 222 224 226 225 234 244 241 237 237 246 255 250 249 253 245 239 239 235 235 241 240 236 234 235 234 228 224 225 223 222 220 217 214 212 213 214 214 214 216 217 217 217 217 219 222 224 226 226 229 233 237 240 240 242 243 242 243 243 245 246 247 249 251 254 258 260 262 264 264 264 264
245 247 252 257 261 266 214 157 205 228 233 225 218 218 220 222 224 225 234 242 240 241 243 246 253 250 245 250 251 245 243 241 241 243 241 239 238 240 239 232 225 225 225 223 223 223 221 219 218 220 221 220 220 221 219 219 219 220 223 226 229 230 232 236 240 242 244 245 246 247 247 247 248 249 251 252 253 255 258 260 263 264 266 267 268
243 245 250 255 262 271 270 218 181 202 216 218 219 222 224 222 222 225 232 239 242 245 247 249 252 248 243 247 253 253 250 247 245 243 243 242 240 242 240 236 232 229 227 225 224 225 227 227 224 225 227 226 226 224 222 221 221 222 225 227 231 234 237 239 240 242 245 247 248 249 250 251 251 252 254 254 255 256 258 260 261 263 265 266 268
239 242 246 251 260 268 271 265 237 201 200 210 219 226 229 227 226 229 232 234 238 240 243 247 250 253 252 252 255 256 251 246 244 243 244 244 240 241 242 240 238 235 230 228 227 227 228 230 230 231 232 232 231 229 227 226 225 226 228 230 233 235 238 240 242 243 245 247 248 250 251 252 252 253 254 256 256 257 259 260 261 263 264 265 266
243 244 248 253 260 263 265 270 265 244 208 205 214 223 227 228 231 236 236 232 232 236 244 249 252 260 264 258 254 251 246 244 245 246 245 244 242 241 244 243 241 238 235 233 233 231 230 231 233 234 235 236 236 235 235 234 232 231 232 232 233 235 238 240 242 244 246 247 248 249 251 252 252 253 253 255 256 258 259 260 261 263 264 265 267
260 258 260 262 264 264 262 266 268 262 240 219 217 218 220 227 233 240 240 234 231 235 244 252 255 261 263 258 252 245 242 243 245 246 245 243 243 245 246 244 242 239 237 236 238 237 235 232 234 236 237 238 238 237 237 238 237 236 236 235 235 236 237 239 241 243 245 247 249 249 250 252 254 254 255 255 256 257 259 260 261 262 263 265 266
270 270 272 272 270 268 265 264 266 262 254 246 237 229 225 232 238 241 239 233 234 242 249 251 251 255 258 256 253 246 241 243 244 243 244 244 244 246 247 244 242 240 237 238 239 240 238 235 234 237 239 240 240 239 239 240 240 239 239 238 237 237 237 238 240 242 244 246 248 248 249 251 253 255 257 257 258 258 259 260 260 261 262 264 265
268 270 271 271 271 270 267 264 263 260 257 255 249 238 235 239 241 239 236 232 239 252 253 248 251 256 256 253 252 248 242 242 244 244 246 248 246 245 246 245 243 241 240 240 241 241 240 239 237 236 239 240 241 242 242 242 242 242 241 240 239 239 239 240 240 241 243 244 246 247 248 249 251 253 255 257 258 259 260 260 260 261 262 264 265
265 268 269 269 269 268 266 262 261 260 257 256 255 248 242 242 238 234 233 234 242 256 252 247 261 268 260 253 247 246 247 244 242 243 245 247 246 245 245 244 243 243 242 242 243 243 242 241 239 238 239 240 241 242 243 243 244 244 244 243 242 241 241 242 242 242 243 244 245 247 248 249 250 252 253 254 255 257 259 260 261 261 262 264 266
265 268 269 267 265 266 267 265 262 261 259 260 263 261 254 245 238 235 233 234 243 257 252 248 261 273 272 265 253 245 247 244 242 243 243 241 242 243 242 242 242 242 243 243 245 245 244 243 242 241 240 241 242 242 242 242 243 245 245 245 244 243 244 244 245 245 245 246 246 247 248 250 251 253 254 255 255 256 257 258 260 261 262 263 265
267 269 269 267 266 267 269 268 265 263 262 262 264 266 263 248 235 229 227 236 249 256 252 245 234 223 357 325 280 256 246 244 248 248 244 239 239 240 240 240 242 242 243 244 245 246 246 246 245 244 242 241 242 243 243 242 243 244 245 246 246 245 245 246 246 247 247 247 248 248 248 250 252 253 255 256 257 258 258 259 260 260 262 263 264
265 267 269 270 269 269 269 268 266 264 264 263 262 266 267 252 233 227 227 236 248 248 250 247 214 169 101 42 303 291 261 252 252 249 241 237 236 236 236 237 241 244 244 244 245 245 246 246 247 247 246 244 243 243 244 244 244 244 245 245 246 246 246 247 247 248 248 249 249 250 249 250 252 253 255 256 257 258 259 260 261 262 263 264 265
262 264 267 270 270 269 268 266 266 267 267 264 263 264 265 255 238 233 232 235 244 242 246 248 225 192 141 111 73 29 292 255 243 243 238 235 235 234 233 234 237 241 243 243 245 245 245 245 246 246 247 247 247 245 245 246 246 246 247 246 246 246 247 247 248 248 249 250 250 250 250 251 252 253 254 255 256 257 258 259 260 262 263 263 265
260 262 264 268 269 268 265 264 266 268 268 266 263 261 259 254 246 242 238 239 244 238 236 238 232 222 198 165 107 104 258 237 224 239 232 229 232 231 231 234 236 238 240 242 243 243 244 244 244 245 246 247 248 248 248 248 249 248 248 248 247 246 247 247 248 248 249 250 251 251 251 251 252 252 254 255 256 257 258 258 259 261 262 264 265
262 264 266 268 269 268 264 263 263 263 265 264 259 256 254 252 251 252 250 248 238 222 223 224 226 230 218 211 221 221 223 187 154 260 232 226 230 230 232 234 235 237 238 240 242 242 243 243 243 244 245 246 247 248 249 250 250 250 250 250 249 248 247 248 248 249 249 249 250 251 251 252 252 252 254 255 255 256 257 258 259 261 263 264 265
265 267 269 270 270 269 266 264 263 262 262 257 254 254 254 255 255 255 253 251 240 220 218 214 213 227 227 229 238 243 248 228 193 220 235 230 231 230 233 234 233 234 236 238 241 242 243 244 244 245 245 245 246 247 248 250 251 251 252 252 252 251 251 250 250 249 250 249 249 250 251 252 252 253 254 255 256 256 257 258 259 261 263 263 263
265 268 270 271 269 268 267 266 263 260 258 255 256 257 258 259 259 257 250 249 248 239 235 222 209 217 221 226 236 242 246 243 231 220 194 219 232 228 233 234 233 234 236 238 240 242 243 243 244 245 245 245 245 246 248 249 251 252 253 254 254 254 254 253 252 251 251 251 251 251 251 252 252 253 254 255 255 256 257 258 259 260 262 263 263
273 277 278 274 270 267 266 264 261 258 256 257 259 260 260 259 259 255 248 247 252 251 249 242 232 230 228 227 234 241 244 245 241 231 220 226 229 220 226 228 233 237 238 239 240 241 241 242 243 244 245 245 245 246 247 249 250 251 253 255 255 255 255 254 254 253 253 253 253 253 253 253 252 252 252 253 254 255 256 257 258 260 261 262 263
289 290 290 286 280 273 267 264 263 261 259 260 262 261 261 259 257 254 248 248 252 252 250 250 251 251 249 244 243 244 243 242 236 229 227 234 234 226 209 202 218 235 235 236 237 238 239 241 242 242 242 243 244 245 246 248 249 250 252 255 256 256 257 256 255 255 255 255 255 255 254 254 253 252 251 251 252 254 255 257 258 260 261 262 263
313 306 301 297 293 287 278 272 268 265 263 263 264 263 262 259 257 254 250 249 251 250 248 250 252 252 255 255 252 250 247 241 235 226 221 228 232 234 216 209 217 233 236 237 238 238 239 240 241 242 242 242 242 243 244 247 248 250 252 255 256 255 256 257 256 255 255 256 256 256 255 255 254 253 252 252 252 252 254 256 258 260 261 263 265
325 319 313 307 301 294 289 282 275 272 270 269 268 267 265 262 257 254 252 251 250 248 246 247 247 249 256 260 259 258 254 250 247 237 228 228 228 230 228 217 221 240 242 240 240 240 241 241 242 243 243 243 243 242 243 245 247 249 251 254 254 254 254 256 257 256 255 255 256 256 256 255 255 255 255 254 253 253 253 255 257 259 261 264 265
326 323 322 318 307 297 292 287 283 282 280 278 275 272 269 264 259 257 257 255 253 251 250 250 251 254 259 264 263 262 261 260 257 250 240 235 234 239 238 225 223 245 244 237 238 241 242 243 244 244 244 244 245 244 243 243 245 246 248 251 252 252 253 254 256 256 256 256 256 256 256 256 256 256 256 256 255 255 254 254 256 258 260 263 264
323 323 325 325 317 304 293 288 288 288 285 283 280 276 274 269 263 261 261 259 257 255 254 254 256 258 261 265 265 264 267 269 266 259 246 234 237 246 242 233 235 246 248 238 233 235 242 245 245 243 244 245 244 244 243 242 243 244 246 249 250 250 251 253 254 256 256 255 256 258 258 257 256 256 256 256 256 256 255 255 256 257 258 259 261
326 327 329 334 335 325 307 294 290 290 290 288 284 279 277 273 266 263 265 264 260 258 257 256 258 260 260 261 263 264 268 272 270 266 254 237 238 243 236 226 242 250 250 242 233 234 243 250 249 245 243 243 243 242 241 241 242 243 244 246 248 249 250 252 253 254 254 255 256 258 257 256 255 255 254 255 254 255 255 255 255 255 256 256 256
330 329 331 339 347 347 333 315 303 298 297 295 290 284 280 277 272 269 271 271 266 262 261 260 259 262 262 259 256 255 260 268 270 268 262 254 253 251 240 225 225 248 251 245 242 244 247 247 248 251 248 245 244 242 240 240 241 243 243 244 247 249 250 252 253 252 252 253 255 257 257 255 254 254 254 254 254 255 255 255 255 254 254 255 255
326 327 333 341 346 347 345 336 323 312 306 301 298 296 290 283 277 274 277 276 272 268 267 266 264 265 262 259 258 256 255 262 269 270 269 267 268 269 257 240 230 226 230 239 233 237 244 241 241 249 251 247 246 244 241 240 241 242 242 244 246 248 250 251 252 251 251 251 253 256 257 256 254 254 254 254 254 255 254 254 255 253 251 252 254
327 330 333 335 337 339 336 331 324 317 311 306 303 301 294 287 282 279 280 278 272 268 268 268 267 264 260 259 264 261 254 259 268 272 273 274 273 274 274 261 244 230 219 227 237 235 237 239 241 247 250 249 247 244 242 242 242 242 242 244 246 247 249 251 251 252 252 252 254 255 255 255 254 254 253 254 254 254 254 254 254 254 251 251 252
332 330 329 328 328 328 325 323 323 325 324 316 307 303 297 292 290 287 285 280 270 266 268 269 266 263 262 263 265 263 259 262 269 272 272 274 276 276 278 274 258 240 228 217 233 245 237 236 244 248 249 249 247 245 244 245 245 243 242 244 246 248 250 252 253 253 253 254 255 254 255 255 255 255 255 255 255 255 255 255 255 255 254 252 252
334 331 328 327 327 325 323 323 326 331 334 328 316 309 302 299 296 292 290 282 269 267 272 272 270 267 266 266 267 265 264 265 268 271 271 268 272 274 275 278 269 250 233 219 217 249 243 242 247 248 245 244 246 246 246 247 247 244 243 243 246 249 251 253 254 254 254 254 255 255 255 256 257 256 255 256 257 258 259 259 258 258 256 254 252
328 326 324 322 322 326 326 325 324 323 322 319 314 311 305 303 302 297 291 281 270 270 274 275 274 272 268 267 268 266 263 263 265 268 267 263 265 268 271 275 272 256 237 223 218 243 247 244 242 241 240 237 239 243 246 248 247 245 243 243 246 249 250 251 252 252 252 253 254 255 254 255 256 256 256 256 257 258 260 261 261 260 259 258 256
323 321 320 317 316 318 319 317 315 313 313 311 308 309 306 301 302 301 295 285 277 277 278 278 277 275 271 266 266 265 260 259 261 261 259 257 259 263 266 270 271 265 250 236 228 231 244 242 235 233 233 231 233 237 241 244 244 244 243 243 243 244 246 248 249 249 249 250 252 254 254 254 255 256 257 257 258 259 260 260 261 261 261 262 261
325 322 320 319 317 315 314 312 310 309 311 310 306 305 303 297 295 299 300 293 284 279 278 279 280 278 274 269 267 266 260 259 261 259 257 255 255 258 261 264 267 272 269 255 240 231 234 241 237 229 224 224 229 233 236 239 241 242 242 242 242 242 242 243 245 247 248 248 252 254 255 256 257 258 259 259 259 259 259 260 261 262 263 264 264
325 323 320 320 320 319 316 313 313 311 310 309 306 303 302 297 290 292 299 298 288 280 276 276 278 277 274 271 270 268 263 261 261 261 259 258 257 258 260 262 265 269 273 270 255 241 235 238 239 234 228 225 228 231 232 233 236 239 241 242 242 242 242 242 245 247 247 248 252 254 254 254 256 258 259 260 260 260 260 260 261 262 263 264 265
325 323 320 319 320 321 319 316 314 312 309 307 304 301 299 297 292 290 293 296 291 283 277 275 275 274 272 272 272 271 266 262 262 263 262 261 260 260 260 261 263 266 269 272 269 257 245 239 242 241 233 226 226 229 230 229 231 234 237 240 240 241 242 242 244 245 245 245 248 252 254 256 258 260 260 260 259 259 260 259 259 260 262 264 265
323 321 319 318 317 318 319 316 313 311 309 307 303 300 297 294 292 290 288 289 289 284 279 277 276 275 273 272 273 272 267 263 261 262 263 262 259 258 260 260 261 263 265 268 275 272 257 246 246 247 234 221 219 223 226 227 227 227 228 232 236 238 239 240 242 242 241 243 246 250 255 257 259 261 261 260 259 259 260 259 258 258 259 261 264
320 319 317 316 315 316 316 314 312 310 308 307 303 300 298 293 290 288 285 286 286 285 281 277 277 277 276 276 276 275 271 266 262 261 261 261 258 257 258 260 261 262 262 264 270 276 268 253 247 247 235 220 216 219 222 223 224 226 224 224 228 233 235 238 241 241 241 243 247 250 252 254 258 260 260 261 262 261 260 259 258 258 257 258 260
318 317 317 315 314 313 313 311 310 309 306 305 302 300 298 295 292 287 283 284 285 285 283 280 277 276 277 278 278 277 275 270 266 263 260 259 258 258 258 259 260 261 261 261 262 269 269 255 246 244 235 219 212 214 215 213 213 218 223 224 227 232 235 238 242 243 243 243 246 249 250 252 255 256 257 260 263 263 261 260 260 260 260 260 259
320 317 316 315 313 312 312 310 309 308 305 302 301 301 297 293 291 288 283 283 285 284 283 280 278 276 276 276 277 279 278 275 272 269 264 261 259 258 258 257 257 257 258 258 257 262 266 257 246 240 231 217 209 205 202 203 208 215 220 222 228 235 238 241 243 244 244 245 247 250 251 253 254 255 257 260 264 264 262 261 262 264 264 262 261
321 320 318 316 315 313 312 310 308 307 305 303 302 301 297 293 292 289 284 282 282 282 280 278 276 277 278 277 277 280 281 280 278 274 267 263 259 257 256 255 253 251 251 249 247 250 257 260 252 240 230 219 210 204 204 208 212 214 214 216 225 232 235 240 246 245 243 243 246 250 252 252 252 253 254 258 262 263 262 262 265 268 269 266 264
320 320 318 317 316 315 313 310 308 306 305 304 304 302 300 297 293 290 286 283 281 280 279 276 274 275 278 279 279 280 281 282 281 277 271 265 261 259 259 258 255 251 249 244 240 238 241 251 258 249 241 237 220 208 209 211 209 209 211 215 221 224 223 227 242 247 244 241 241 245 251 251 250 251 254 258 262 262 262 264 266 269 270 269 267
318 316 316 316 316 315 314 310 308 306 305 305 305 304 301 299 296 292 289 285 282 279 278 276 274 274 276 277 278 279 281 284 285 282 278 274 269 264 262 261 257 253 249 245 241 237 233 238 247 244 242 247 237 214 208 209 208 208 211 216 220 221 221 220 228 241 245 242 236 239 248 251 248 249 252 257 260 260 260 262 263 266 267 266 267
314 311 312 314 315 315 313 310 308 306 305 305 306 305 302 300 297 294 291 288 285 282 280 277 274 272 273 275 276 277 279 283 285 284 282 280 276 271 266 262 259 255 252 247 244 243 240 236 234 234 236 243 245 232 217 211 211 209 208 214 220 222 222 224 234 244 246 241 231 232 245 251 247 245 249 253 257 258 259 259 260 262 261 261 263
311 309 310 311 313 313 311 309 307 305 304 305 306 306 304 302 299 295 291 289 287 286 284 280 276 273 272 273 273 274 277 279 281 282 281 280 278 275 269 263 260 258 255 250 245 242 241 237 234 235 237 238 243 243 232 219 215 213 212 216 221 223 226 234 244 248 247 241 234 229 240 249 245 241 246 250 252 253 254 256 258 257 255 256 258
309 308 307 306 308 310 310 309 306 303 303 305 306 306 304 302 301 298 292 289 287 286 286 284 280 276 274 273 272 273 275 277 278 279 279 278 277 275 270 264 262 261 257 252 245 240 238 237 235 237 239 239 243 246 240 230 222 220 222 226 229 231 235 241 248 250 248 243 234 224 232 246 244 239 244 249 249 249 251 253 254 250 246 249 249
306 305 303 303 304 306 307 307 305 302 304 306 307 306 305 303 301 298 294 290 288 285 285 286 284 279 277 275 273 273 274 276 277 276 277 276 273 270 266 261 258 258 258 255 249 244 240 237 236 238 238 238 243 249 248 240 231 230 229 229 231 233 235 240 248 250 249 244 232 222 225 240 243 238 242 246 243 244 245 245 245 241 240 244 243
302 301 300 301 303 303 303 304 303 303 305 308 307 307 307 305 302 298 295 293 289 285 284 286 286 284 281 279 277 275 275 276 276 275 276 275 270 266 264 260 254 252 254 255 250 245 242 238 236 236 235 236 240 246 247 242 240 240 234 225 228 231 225 226 239 243 244 243 233 223 222 234 239 234 235 240 239 240 241 240 237 234 237 240 234
299 299 299 299 301 302 301 302 303 303 304 307 308 307 307 307 303 299 297 295 290 285 283 285 286 286 285 283 280 276 274 275 277 278 278 274 269 265 263 261 257 251 250 250 247 243 240 237 233 232 233 236 238 240 242 241 242 243 238 234 236 231 219 218 229 235 239 243 236 222 216 227 232 226 219 220 223 228 233 236 236 230 230 231 230
302 301 299 297 299 300 300 302 305 304 305 308 311 309 308 309 305 300 299 296 289 284 284 284 285 286 286 284 281 277 275 277 279 279 278 275 268 264 262 258 253 252 252 251 247 244 240 235 231 230 231 233 234 235 238 240 241 241 240 242 241 232 221 223 229 228 233 244 237 222 212 219 224 216 207 198 195 216 224 226 230 229 223 222 226
Height
823 823 823 822 822 823 823 824 824 824 824 824 824 824 824 824 824 824 824 824 824 825 825 825 826 827 827 827 828 828 829 830 832 833 834 835 837 838 840 841 842 843 844 845 846 847 848 850 851 852 853 854 855 856 857 857 858 859 860 861 861 862 863 863 864 864 864 865 865 865 866 866 866 867 867 867 867 868 868 868 868 868 868 868 868
822 823 823 822 821 822 822 822 822 823 823 823 824 824 823 823 823 823 823 823 823 824 824 824 824 825 826 827 827 827 828 829 830 831 832 834 835 836 838 839 841 842 843 844 845 846 847 848 850 851 852 853 854 855 855 856 857 858 859 859 860 861 862 862 863 863 864 864 864 865 865 865 866 866 866 867 867 867 867 867 867 867 867 867 867
822 823 822 822 821 821 820 820 821 822 822 822 823 823 823 823 823 823 823 823 823 822 823 823 823 824 825 825 826 826 827 828 829 830 831 832 833 834 836 838 839 840 841 842 844 844 845 847 848 849 850 851 852 853 854 855 856 856 857 858 859 860 860 861 861 862 863 863 864 864 864 865 865 865 866 866 866 866 866 867 867 867 866 866 866
822 822 822 822 821 820 820 819 820 821 821 822 822 823 823 823 823 823 823 823 823 822 822 822 822 823 823 824 825 826 827 827 828 829 830 831 832 833 834 836 837 839 840 841 842 843 844 845 846 847 848 850 851 852 852 853 854 855 856 857 857 858 859 860 860 861 862 862 863 863 863 864 864 864 865 865 865 866 866 866 866 866 865 865 865
820 821 821 821 820 820 820 819 820 820 821 821 821 822 822 823 823 823 823 822 822 821 821 821 821 822 822 823 824 825 826 826 827 827 829 829 830 832 833 835 836 837 838 839 841 842 843 844 845 846 847 848 849 850 851 851 852 853 854 855 856 857 858 858 859 860 860 861 862 862 863 863 863 864 864 864 864 865 865 865 865 864 864 864 863
819 819 819 820 819 819 819 819 819 819 820 820 820 821 821 821 822 822 822 822 821 821 821 820 821 821 821 822 823 824 825 825 826 826 827 828 829 831 832 834 835 836 837 838 839 840 841 842 843 845 846 847 848 849 849 850 851 852 852 853 854 855 856 857 857 858 859 860 860 861 861 862 862 863 863 863 863 864 864 863 863 863 863 863 862
818 818 818 819 819 819 818 819 819 819 819 819 820 820 820 820 821 821 821 821 821 821 820 820 820 820 820 821 821 822 823 824 825 826 827 827 828 830 831 832 833 835 836 837 838 839 840 841 842 843 844 845 846 847 848 848 849 850 850 851 852 853 854 855 856 856 857 858 859 859 860 860 861 862 862 862 862 862 862 862 862 862 862 861 861
817 817 817 818 818 818 818 818 818 818 819 819 819 819 819 819 819 820 820 820 821 820 820 820 819 820 819 820 820 821 822 823 824 825 826 827 827 829 830 831 832 833 834 835 836 837 838 839 840 841 842 843 844 845 846 846 847 848 848 849 850 851 852 853 853 854 855 856 856 857 858 859 859 860 860 860 860 860 860 860 860 860 860 860 859
816 817 816 816 817 817 817 817 817 817 818 818 818 818 818 818 818 818 818 819 820 820 819 819 819 819 819 819 820 821 822 822 823 824 825 826 827 828 829 830 830 831 832 833 834 835 836 837 838 839 840 841 842 843 843 844 845 846 846 847 848 849 849 850 851 852 852 853 854 855 856 856 857 858 858 858 858 859 859 858 858 858 858 858 858
815 815 815 815 815 815 816 816 816 816 816 816 817 817 817 817 817 817 817 818 818 819 818 818 818 819 819 819 820 820 821 822 823 824 824 825 826 827 828 828 829 830 830 831 832 832 833 834 836 836 837 838 839 840 841 842 843 843 844 845 845 846 847 847 848 849 850 851 852 852 853 854 854 855 856 856 856 856 856 856 856 856 856 856 856
813 813 813 813 813 814 814 815 815 815 815 815 815 816 816 816 816 816 816 816 816 817 817 817 818 818 818 818 818 819 820 821 822 823 824 824 825 825 826 827 827 828 829 829 830 830 831 832 833 834 835 836 837 838 838 839 840 841 842 842 843 843 844 845 846 847 848 848 849 850 851 851 852 853 853 853 854 854 854 854 854 854 854 854 854
811 811 812 812 812 812 812 813 813 813 813 814 814 814 814 814 814 814 815 815 815 815 815 815 816 816 816 816 817 818 819 820 821 822 822 822 824 824 824 825 826 826 827 827 828 828 829 829 829 830 831 832 834 835 836 836 837 838 839 840 840 841 842 842 843 844 845 846 847 847 848 849 850 850 851 851 851 851 851 852 852 852 852 852 852
810 810 810 810 811 811 811 811 812 812 812 813 813 813 813 813 813 813 813 814 814 814 813 814 814 814 814 815 815 816 818 819 820 820 819 820 822 823 823 823 824 824 825 825 826 826 826 827 827 827 828 829 830 832 833 834 834 835 836 837 838 839 839 840 841 842 842 843 844 845 846 847 847 848 848 849 849 849 849 849 849 849 850 850 850
809 809 809 809 809 809 809 810 810 810 811 811 812 812 812 812 812 811 811 812 813 813 813 812 812 813 814 816 816 816 816 817 818 818 817 818 820 821 821 821 821 822 823 823 823 824 824 824 825 825 825 826 827 828 829 830 831 832 833 834 835 836 837 838 839 839 840 841 842 843 843 844 845 845 846 846 846 846 847 847 847 847 847 847 847
807 807 808 807 808 808 808 808 808 809 809 809 810 810 811 811 810 810 810 811 811 811 811 811 811 814 816 818 819 818 817 815 815 815 815 817 818 818 819 819 819 820 821 821 821 821 822 822 823 823 823 823 824 825 826 827 828 829 830 831 832 833 834 835 836 837 838 839 839 840 841 842 842 843 843 843 844 844 844 844 844 845 845 845 845
806 806 806 806 806 806 806 806 807 807 808 808 808 808 809 809 809 809 809 809 809 809 810 810 811 813 815 817 818 820 818 814 812 813 814 815 816 816 817 817 817 818 818 818 818 819 819 820 820 820 821 821 821 822 823 823 824 825 827 828 829 830 831 832 833 834 835 836 837 838 838 839 839 840 840 841 841 841 842 842 842 842 843 843 843
805 805 805 805 805 805 805 805 805 806 806 806 807 807 807 807 807 808 808 807 807 808 809 809 810 811 811 812 815 819 818 812 811 813 812 813 814 813 814 815 815 816 816 816 816 816 816 817 817 818 818 818 819 820 820 821 821 822 823 824 826 827 828 829 830 831 832 833 834 835 836 836 837 837 837 838 838 839 839 839 840 840 840 841 841
804 804 804 804 804 803 803 803 803 804 804 805 805 806 806 806 806 806 806 807 807 807 807 808 809 809 809 808 810 813 813 811 814 815 811 811 812 812 812 812 813 813 813 813 813 813 814 814 814 814 815 816 816 817 817 818 819 820 820 821 822 823 824 826 827 828 829 830 831 832 832 833 833 834 834 835 835 836 836 837 837 837 838 838 838
803 803 803 803 803 802 802 802 802 802 803 803 803 804 804 804 805 805 805 806 806 806 806 807 808 808 808 808 807 809 810 811 814 815 814 812 810 809 810 809 810 810 810 810 810 810 811 811 811 811 812 813 813 814 815 815 816 817 818 818 819 820 821 822 823 824 826 827 828 828 829 830 830 831 831 832 832 833 833 834 834 834 835 835 835
802 802 801 802 801 801 801 800 800 801 801 801 801 802 802 802 803 803 803 804 804 805 805 806 807 807 807 808 808 808 809 809 809 810 812 812 809 808 807 807 808 807 807 807 807 807 808 808 808 809 809 810 811 811 812 813 813 814 815 815 816 817 818 819 820 821 822 823 824 824 825 826 826 827 828 828 829 829 830 830 831 831 831 832 832
800 800 800 800 800 800 799 799 798 799 799 799 799 800 800 800 801 801 802 802 803 803 804 804 805 806 806 807 807 806 806 806 807 807 807 809 809 807 805 805 806 804 804 804 804 804 804 805 805 806 806 807 808 809 809 810 811 811 812 812 813 814 815 816 817 818 819 819 820 820 821 822 823 823 824 825 825 826 826 827 827 828 828 829 829
799 799 798 798 798 798 797 797 797 797 797 797 797 798 798 798 798 799 800 801 801 801 802 802 803 803 804 804 804 804 804 804 804 804 804 805 806 804 802 803 803 800 799 800 800 800 801 802 802 803 803 804 805 806 806 807 808 808 809 810 811 811 812 813 814 815 815 816 817 817 817 818 819 819 820 821 821 822 823 823 824 825 825 826 826
797 797 797 797 797 796 796 795 795 795 795 795 795 795 796 796 796 797 798 798 799 799 800 800 800 801 801 802 802 802 802 802 801 801 802 802 802 801 800 799 799 797 796 796 796 797 798 798 799 799 800 801 802 802 803 804 805 805 806 807 808 809 809 810 811 812 813 813 814 814 814 815 815 816 816 816 817 818 819 820 820 821 822 822 823
796 796 795 795 795 794 794 793 793 793 792 792 793 793 794 794 794 794 795 796 797 797 798 798 798 798 798 799 799 799 799 799 799 799 799 799 799 798 797 797 797 794 793 794 794 794 794 795 795 796 796 797 798 799 800 801 802 803 804 804 805 806 807 808 808 809 810 810 811 811 812 812 812 812 812 813 813 814 815 816 817 817 818 819 819
795 795 794 794 793 793 792 791 791 790 790 790 791 791 791 792 792 792 792 793 794 794 795 795 796 795 796 796 796 797 797 797 797 797 796 796 797 796 795 795 794 792 791 792 791 792 792 792 792 793 793 794 795 796 797 798 799 800 801 802 802 803 804 805 806 806 807 808 808 808 809 809 809 809 809 810 810 811 812 813 813 814 815 815 816
794 793 793 792 791 791 790 789 789 789 789 789 788 789 789 790 790 790 790 790 791 792 792 792 793 793 793 793 793 794 794 795 795 794 794 795 796 795 794 793 792 791 790 790 790 790 789 789 789 790 790 791 792 793 793 794 795 796 798 799 800 801 801 802 803 804 804 805 805 806 806 806 806 806 807 807 808 808 809 809 810 811 812 812 813
793 792 791 790 789 789 788 788 788 787 787 787 787 787 787 787 788 788 788 788 788 789 789 789 790 790 790 790 791 791 791 792 792 792 792 792 792 792 792 793 793 791 789 788 788 787 786 786 787 787 787 788 788 789 790 791 792 793 795 796 797 798 799 800 801 802 802 802 803 803 803 804 804 804 804 805 805 806 806 807 807 808 809 809 810
792 791 790 789 788 787 787 786 786 786 786 786 785 785 785 785 785 785 785 786 786 786 786 786 786 786 786 787 787 788 788 789 789 790 790 789 789 789 788 789 792 793 791 789 787 785 784 784 785 784 785 785 786 786 787 788 789 791 792 794 794 795 796 797 798 799 799 800 800 800 801 801 801 801 802 802 803 803 804 804 805 805 806 807 807
791 790 789 788 788 787 786 785 785 784 784 784 783 783 783 783 783 783 783 783 784 783 783 783 783 783 783 784 784 784 785 786 786 787 787 787 787 787 786 785 787 789 790 790 787 782 782 782 782 782 782 782 783 783 785 785 786 788 790 791 792 792 794 795 795 796 797 797 797 798 798 798 799 799 800 800 800 801 801 801 802 803 803 804 804
790 789 788 787 787 786 785 785 784 783 782 781 781 781 781 781 780 780 780 781 781 781 781 781 780 781 781 781 781 781 782 783 783 784 784 784 784 784 784 784 783 783 784 786 785 780 779 780 779 780 780 780 781 781 782 783 784 786 787 788 789 789 791 792 793 793 794 795 795 795 796 796 797 797 798 798 798 798 799 799 800 800 801 801 801
789 788 787 786 785 785 784 784 783 782 781 780 779 779 779 779 779 778 778 778 779 779 778 778 778 778 778 778 779 779 779 779 779 780 780 780 781 782 782 781 781 780 779 781 782 779 777 777 777 778 778 778 779 779 780 780 781 783 784 785 786 787 788 789 790 791 792 792 793 793 794 794 795 795 795 795 796 796 797 797 798 798 799 799 799
787 786 786 785 784 784 783 782 781 781 780 779 779 779 778 777 777 776 776 776 776 776 775 775 775 776 775 775 775 776 776 776 776 777 776 776 777 778 779 779 778 778 776 777 778 776 774 775 775 775 776 776 777 777 778 779 779 781 781 782 784 785 786 787 788 788 789 789 790 790 791 792 792 792 792 793 793 794 795 796 796 796 796 796 796
786 785 785 784 783 783 782 781 780 780 779 779 778 778 777 776 775 775 774 774 774 773 773 773 772 773 773 772 772 773 773 773 773 774 774 774 774 775 776 776 776 776 775 774 774 773 772 773 773 773 774 774 774 775 776 777 777 778 779 780 781 782 783 784 785 785 786 787 787 788 789 789 790 790 790 790 791 792 793 794 794 794 794 794 794
786 784 783 782 781 781 780 779 779 778 778 777 777 776 775 774 774 773 772 772 771 771 770 770 770 770 771 770 769 770 771 770 770 771 771 771 772 772 772 774 774 774 774 773 771 771 770 770 770 771 772 772 772 773 774 774 775 776 777 778 779 780 781 781 782 783 783 784 785 785 786 787 787 787 787 788 789 790 791 791 791 791 791 792 792
785 783 782 781 780 779 778 777 777 776 776 775 775 774 773 773 772 771 771 770 769 769 768 768 767 767 768 767 767 768 768 768 767 767 768 768 769 769 769 770 771 772 772 771 770 769 768 768 768 768 769 769 770 771 772 772 773 774 775 775 776 777 778 779 780 780 781 782 783 783 784 784 784 785 785 786 787 787 788 788 788 788 789 789 790
783 782 781 780 779 777 776 775 775 774 774 773 772 772 771 771 770 769 769 768 767 767 766 766 765 765 765 764 765 765 766 766 765 765 765 765 766 766 766 767 768 769 769 769 769 767 766 765 765 765 766 766 767 768 769 770 771 772 773 774 775 775 776 777 777 778 778 779 780 781 781 781 782 782 783 784 784 785 785 785 786 786 786 786 786
782 781 780 778 777 776 775 774 773 772 771 771 770 770 769 769 768 767 767 766 765 765 764 764 763 763 763 762 762 763 764 763 763 763 763 764 764 764 764 764 765 766 766 766 766 766 765 763 763 763 763 763 764 766 767 768 769 770 771 772 773 774 774 775 775 775 776 777 778 779 779 779 779 780 780 781 781 782 782 783 783 783 784 784 784
781 779 778 777 776 775 773 772 771 770 769 769 768 767 767 766 765 765 764 763 763 762 762 761 760 760 760 760 760 761 761 761 761 761 761 762 762 762 762 762 762 763 763 763 763 763 763 762 761 761 761 761 762 763 764 765 766 767 769 770 771 772 773 773 773 773 774 775 776 776 776 776 777 777 778 778 779 779 780 780 780 780 781 781 781
779 778 777 775 774 773 772 770 769 768 767 766 766 765 764 764 763 762 761 761 760 759 759 758 758 757 757 758 758 758 758 758 758 758 759 759 759 759 759 759 759 760 760 760 761 761 761 760 759 759 759 759 759 760 761 763 764 765 767 768 769 770 771 771 771 772 772 773 773 774 774 774 774 775 775 776 776 776 777 777 777 778 778 778 779
778 777 775 774 772 771 770 769 767 766 765 764 763 763 762 761 760 759 759 758 757 757 756 756 756 755 754 755 755 755 755 755 755 755 756 756 756 756 756 757 757 757 757 758 758 758 759 758 757 757 757 757 757 758 759 761 762 763 764 766 766 767 768 769 769 770 770 771 771 771 771 771 772 772 773 773 773 774 774 774 775 775 776 776 776
777 775 774 772 771 769 768 766 765 764 763 762 761 760 760 759 758 757 756 756 755 754 754 753 753 752 752 752 752 752 752 751 751 752 752 752 753 753 753 754 754 754 754 755 756 757 757 756 755 755 755 755 755 755 757 758 759 760 761 764 764 764 766 766 767 768 768 769 769 769 768 769 769 770 770 770 771 771 772 772 772 773 773 773 773
775 774 772 771 769 768 766 764 763 762 761 760 759 758 757 757 756 755 754 753 752 752 751 750 750 749 749 749 748 749 748 748 748 748 748 749 749 749 750 750 751 751 751 751 752 753 755 754 753 753 753 753 752 752 753 754 755 757 759 761 762 762 764 764 764 764 765 766 767 766 766 766 767 767 767 768 768 769 769 769 770 770 770 770 770
774 772 771 769 767 766 764 762 761 759 758 757 757 756 755 754 754 752 751 750 749 749 748 748 747 747 746 746 745 746 745 744 744 744 744 745 745 745 745 745 746 747 747 747 747 748 750 751 751 752 753 752 750 749 750 751 753 754 756 757 759 760 761 762 762 761 762 763 764 763 763 764 764 765 765 765 766 766 767 767 768 768 768 768 768
772 770 769 767 765 764 762 760 759 757 756 755 754 754 752 751 751 750 749 748 747 746 746 745 744 744 743 743 743 743 742 742 741 741 741 741 741 741 741 741 741 742 742 743 743 743 744 746 747 749 750 751 750 747 747 748 750 751 752 754 756 757 758 759 758 758 758 760 761 760 760 761 762 763 762 763 763 764 764 765 765 765 766 766 766
770 768 767 765 763 762 760 758 756 755 754 753 751 751 750 749 748 747 746 745 744 743 743 742 742 741 741 740 740 739 739 739 738 738 738 738 737 737 738 738 737 737 737 738 738 739 739 740 742 743 744 747 749 748 745 744 746 748 749 750 752 753 754 755 755 755 756 757 758 759 759 759 760 760 760 760 761 761 762 762 762 763 763 764 764
768 766 765 763 761 759 758 756 754 752 751 750 749 748 747 746 745 744 743 742 741 740 740 739 739 738 738 738 737 736 736 736 735 735 735 734 734 734 734 734 733 732 732 733 733 734 735 735 736 737 739 742 746 747 744 742 742 743 745 746 748 749 751 751 751 752 754 755 756 757 757 757 758 758 758 758 759 759 759 759 759 760 761 761 762
766 764 762 761 759 757 755 754 752 750 748 747 746 745 744 743 742 741 740 739 738 737 736 736 736 735 735 735 734 733 733 732 732 732 732 732 731 730 730 729 729 728 727 728 728 728 729 730 730 731 734 738 741 742 741 740 739 740 742 744 746 747 748 749 749 750 751 752 754 755 754 754 755 756 756 756 757 757 757 757 757 758 758 759 759
764 762 760 758 757 755 753 752 750 747 746 744 744 742 741 740 739 738 737 736 735 734 733 733 732 732 732 731 731 730 730 729 729 729 729 729 728 727 726 725 725 725 723 723 723 723 724 725 726 727 730 733 736 738 738 737 738 739 741 743 745 746 747 747 748 748 748 749 750 751 752 752 753 754 754 755 755 755 755 755 755 756 756 757 757
761 760 758 756 755 753 751 749 747 745 743 741 741 739 738 737 736 735 734 733 732 731 730 730 729 729 729 728 727 727 727 726 725 726 726 727 726 725 724 722 722 721 720 719 719 720 720 721 722 724 726 728 731 733 734 735 737 739 740 740 742 743 744 745 745 744 745 745 747 748 750 750 751 752 753 753 753 754 754 754 754 754 755 755 756
758 757 755 753 752 750 749 747 745 743 740 738 738 737 735 735 733 732 731 730 729 728 727 727 727 726 725 725 724 724 724 723 722 723 723 723 722 721 721 720 719 717 716 716 717 717 717 718 719 721 722 724 725 728 731 732 733 735 737 738 739 740 741 742 741 741 742 742 743 746 747 747 748 750 751 752 752 752 752 752 753 753 753 753 754
756 754 752 751 749 747 746 744 742 741 739 736 735 734 733 732 731 729 729 727 726 725 724 724 723 722 722 721 720 720 720 719 719 719 719 720 719 717 717 717 716 714 712 713 715 714 714 715 716 717 718 719 721 723 726 727 727 730 732 734 736 737 737 738 738 739 740 739 739 742 744 744 745 747 749 750 751 751 750 751 751 751 751 752 752